RH
15 30 30 36 48 49 51 32 11 12 28 34 42 40 38 31 10 10 15 41 35 20 10 11 7 3 2 2 3 3 3 2 2 2 2 2 3 12 13 12 13 13 12
7 17 25 31 33 45 47 48 28 14 15 26 29 45 46 44 24 10 10 13 26 11 7 10 9 5 2 2 2 3 2 2 2 2 2 2 2 6 13 12 13 14 15
5 10 14 23 32 34 39 43 43 26 11 11 22 32 39 44 41 30 11 10 6 6 5 8 11 8 4 2 2 2 2 2 2 2 2 2 2 3 7 12 12 13 16
4 4 13 12 15 18 24 32 42 40 35 10 8 15 31 35 38 51 37 13 11 6 5 6 10 11 8 4 2 2 2 2 2 2 2 2 3 3 4 8 11 11 13
4 5 4 5 5 5 8 15 27 38 38 40 16 7 11 26 38 48 55 36 14 11 8 6 8 12 11 9 5 2 2 2 2 3 3 3 4 5 6 6 9 10 12
5 4 4 5 4 4 5 6 7 14 25 35 40 38 8 8 20 41 61 53 23 11 11 10 8 9 12 10 11 7 2 2 3 3 4 6 9 13 12 11 9 11 12
8 7 7 5 5 5 5 5 5 6 11 19 28 34 42 18 9 17 39 59 55 33 10 10 11 10 12 11 10 12 9 3 2 3 3 7 11 14 14 13 8 10 11
10 8 10 10 9 6 6 6 7 6 6 6 7 12 27 39 44 19 10 20 46 45 37 12 10 10 11 12 11 11 12 10 4 2 3 4 9 13 15 15 14 12 13
8 8 10 11 12 12 9 8 8 9 8 7 6 6 5 10 34 50 57 25 18 30 36 29 12 11 10 11 12 12 12 12 11 4 2 3 5 10 14 15 16 14 14
13 12 10 8 9 12 12 11 8 9 10 10 9 8 7 6 5 11 35 60 65 48 36 33 25 19 12 11 9 10 12 12 12 10 3 3 3 4 9 15 16 18 17
17 16 15 14 13 10 9 10 10 9 9 10 10 10 9 9 8 6 5 9 40 59 71 70 51 36 27 20 12 11 7 8 11 11 7 3 3 3 5 9 14 15 18
19 21 21 20 17 15 13 12 11 8 8 9 9 10 10 9 8 9 9 7 7 25 45 56 72 74 61 45 30 17 11 7 6 10 9 4 4 4 4 5 9 14 15
21 21 19 18 18 21 21 17 14 12 11 10 9 9 9 9 10 9 9 10 9 8 10 25 41 72 80 79 64 38 26 12 8 5 7 7 4 4 4 5 5 8 13
19 14 19 18 19 22 24 24 22 20 17 13 12 11 11 11 11 11 11 11 11 10 10 12 16 31 63 80 82 81 50 34 16 10 6 7 6 4 4 4 5 6 7
7 4 4 3 3 3 3 2 4 8 15 22 21 17 15 13 12 12 12 12 12 12 11 10 17 15 19 29 56 82 86 73 40 22 12 7 7 5 4 4 4 5 6
8 7 4 3 2 2 2 2 2 2 2 2 2 8 22 21 19 17 14 13 11 11 12 16 21 19 14 15 25 32 51 83 91 59 29 18 9 7 5 4 4 5 5
5 6 4 4 3 3 3 4 5 4 3 3 2 2 2 2 11 22 21 19 17 16 14 12 12 33 31 28 20 30 46 46 60 92 91 64 28 16 9 7 5 4 5
4 4 4 3 3 3 6 4 4 8 9 6 5 3 3 3 2 2 4 18 22 20 19 19 18 13 23 27 41 51 49 54 54 50 69 96 83 38 24 13 11 8 5
4 3 3 3 3 4 6 9 8 5 7 11 9 7 7 5 4 2 2 2 2 10 19 21 21 20 18 21 26 27 51 56 57 57 52 50 80 93 60 33 24 13 12
4 4 4 4 4 4 5 7 11 11 9 12 12 13 13 11 5 4 3 3 2 2 2 6 18 22 22 21 17 18 30 42 52 65 64 63 49 54 94 87 61 35 22
8 8 8 8 8 8 8 7 8 10 12 13 14 15 17 16 10 5 4 4 4 4 3 2 2 9 22 24 24 20 14 15 30 41 51 63 64 59 49 100 91 80 53
8 9 10 11 12 13 12 11 11 10 10 11 13 15 18 19 15 11 6 6 5 5 5 4 3 2 4 21 25 24 22 18 13 14 26 30 49 60 62 53 72 96 96
9 8 7 7 8 11 9 12 14 14 14 11 12 14 18 20 18 14 8 6 5 4 4 4 4 2 2 4 14 26 25 23 22 19 16 20 32 39 40 50 47 52 63
4 5 5 5 6 7 10 13 13 16 18 16 12 13 15 18 18 15 10 9 9 5 4 5 5 4 3 2 5 11 24 26 25 24 21 16 18 22 29 36 36 38 39
4 5 5 5 5 6 6 6 8 13 16 21 20 16 14 16 17 16 12 14 16 7 6 5 3 4 3 3 4 10 14 19 25 25 25 24 22 19 18 18 27 37 31
6 6 5 5 5 5 5 5 6 7 12 20 24 23 21 19 17 15 13 15 19 14 6 6 3 2 2 2 2 6 13 16 21 25 25 25 25 22 20 19 18 24 31
Wind_Speed
13 12 12 13 12 9 8 8 10 12 12 12 11 8 7 6 6 9 9 10 10 10 9 6 4 5 7 10 13 15 15 15 13 11 10 10 11 12 10 10 9 9 9
15 15 15 15 14 14 12 11 11 12 14 15 14 12 10 8 7 8 12 13 12 11 11 9 7 8 8 10 12 14 14 14 12 11 10 10 10 11 10 8 8 7 7
15 15 15 17 17 17 16 15 14 14 15 16 17 16 13 12 10 8 11 13 14 13 13 13 11 8 9 10 13 14 14 12 12 11 11 11 10 10 10 8 6 6 5
14 15 15 16 18 19 19 18 18 17 17 17 17 18 17 15 13 12 10 13 14 14 15 15 14 12 10 10 11 13 13 13 13 12 12 12 11 9 9 9 7 5 5
18 18 18 17 17 17 19 20 20 20 20 20 18 19 19 18 17 15 13 12 15 16 16 17 18 16 14 12 12 12 13 14 14 13 14 13 11 10 9 9 9 7 5
20 21 21 20 19 18 19 19 20 22 22 22 22 20 20 20 20 18 16 14 13 16 18 18 18 19 17 16 14 13 13 15 15 15 16 15 14 12 11 11 11 9 7
23 24 22 22 21 21 20 20 21 21 22 23 24 24 22 20 21 21 20 17 17 16 17 19 21 21 20 19 18 15 15 16 18 18 19 18 17 14 13 12 12 11 9
23 25 25 24 22 22 22 22 22 22 22 22 23 25 25 24 22 22 22 22 21 20 19 18 20 22 23 23 23 20 19 18 18 20 20 21 20 18 15 13 13 14 12
20 24 25 26 25 24 24 25 25 24 23 24 23 23 23 24 25 24 24 24 24 23 22 22 20 20 22 25 26 25 25 23 21 22 23 23 22 23 18 16 15 15 15
16 18 21 24 26 27 27 26 27 27 27 27 26 26 25 24 24 25 26 28 26 26 26 25 24 23 22 22 24 27 29 29 27 25 24 24 25 24 23 20 18 16 15
16 17 19 20 20 22 26 27 28 29 30 30 30 30 30 30 28 27 26 28 29 29 28 27 26 26 26 26 24 24 26 28 29 28 27 26 27 26 26 24 22 20 18
18 18 19 19 21 20 21 22 23 27 29 31 31 32 32 33 33 32 31 30 29 30 30 30 31 31 29 29 29 26 25 27 28 30 30 29 30 29 27 27 27 26 24
22 22 23 21 21 21 22 23 21 22 24 25 28 30 31 33 34 35 35 35 34 32 32 32 32 33 33 32 30 30 29 28 28 30 32 33 32 31 31 29 30 29 28
20 19 21 20 20 19 20 22 23 23 24 25 26 26 27 28 31 34 35 36 37 36 35 34 34 35 36 36 35 35 31 32 30 30 32 35 35 34 33 32 32 30 30
21 18 18 19 18 17 16 17 19 20 23 26 27 28 29 29 29 30 32 34 36 38 38 37 37 37 37 38 38 37 36 34 33 33 33 35 37 36 36 35 34 33 33
23 24 22 22 22 22 22 22 22 22 23 23 24 26 29 32 34 34 32 32 33 34 38 41 41 40 39 38 38 38 39 38 37 34 35 35 37 38 38 37 36 36 36
28 28 28 27 26 26 26 25 27 25 26 28 28 28 27 29 31 36 38 38 38 37 37 37 39 41 42 42 39 39 40 41 41 40 38 35 36 38 39 40 39 39 38
31 32 32 32 31 30 30 31 32 32 32 33 34 34 35 36 34 33 35 39 41 41 41 41 42 41 41 42 42 43 43 43 43 43 42 42 40 40 40 41 43 42 41
36 36 37 37 37 38 36 36 38 38 37 36 37 39 40 40 40 39 38 38 39 42 43 44 44 45 45 44 43 43 44 45 46 45 43 43 43 44 42 43 42 44 44
42 43 42 41 42 43 44 44 43 43 43 43 43 43 45 46 45 44 43 40 39 39 42 44 46 48 48 48 48 46 45 46 46 46 46 45 44 46 47 46 45 46 44
46 46 47 51 51 50 51 50 49 49 50 50 51 51 50 50 49 50 49 47 46 44 43 43 44 48 50 51 51 51 51 49 48 47 47 47 46 45 47 46 52 54 44
51 51 51 52 52 53 56 56 56 55 55 56 56 55 54 54 53 53 53 53 50 49 47 47 47 46 49 52 53 54 54 54 53 51 50 48 47 47 46 49 59 40 47
53 55 58 60 60 61 63 61 60 60 59 60 60 59 57 56 56 55 55 55 53 50 50 50 50 50 49 50 53 54 56 56 56 56 54 53 52 50 48 48 52 51 56
60 61 62 65 65 64 64 63 64 62 63 64 64 63 63 62 60 58 58 56 56 55 54 54 54 54 53 52 52 54 56 57 59 59 58 58 58 56 54 51 50 50 52
71 72 72 71 69 67 66 66 66 67 66 66 68 68 68 67 65 63 62 61 59 60 58 57 57 56 55 55 54 54 55 57 58 60 61 62 61 61 59 58 55 54 55
79 80 79 78 78 78 77 76 72 68 67 67 65 67 70 71 69 68 67 65 62 62 63 60 59 57 56 55 56 56 56 57 58 60 63 63 64 64 63 62 59 58 56
Wind_Direction
267 258 250 247 254 244 239 242 247 248 245 246 245 238 233 224 230 218 205 204 203 207 214 198 196 181 173 171 170 168 169 170 177 173 174 165 162 152 137 124 114 102 105
261 257 252 248 246 246 243 242 242 243 247 246 246 246 246 239 238 231 219 213 219 218 216 211 208 201 183 186 186 182 182 185 189 188 180 177 174 170 160 150 136 122 107
260 259 255 252 250 247 249 241 242 246 246 245 248 248 244 249 249 242 229 224 222 226 221 222 216 213 203 195 198 199 199 201 202 200 190 185 183 183 183 178 162 147 114
267 264 258 255 254 252 251 251 245 244 248 247 244 246 246 246 250 248 238 234 228 227 227 224 224 221 218 212 209 209 208 210 210 205 195 191 188 188 191 197 193 178 160
270 266 261 258 256 254 252 251 251 249 247 251 249 245 244 245 247 246 243 241 236 230 231 229 228 225 226 223 219 218 218 217 215 209 201 195 195 194 196 202 205 209 199
267 264 264 264 261 255 252 251 251 249 248 247 250 249 246 244 244 243 243 243 242 236 232 235 233 232 230 231 228 223 224 225 223 218 211 204 204 207 212 215 216 219 219
263 266 266 264 261 258 252 250 250 249 248 248 250 250 247 244 245 245 243 239 244 242 235 234 236 236 234 234 233 232 232 230 226 226 221 214 214 218 222 224 225 225 227
259 259 260 262 262 258 255 250 249 248 248 249 247 250 249 247 244 245 244 242 240 240 241 237 237 235 237 237 238 237 237 238 234 229 229 225 220 221 225 225 228 228 227
266 263 260 260 260 257 254 251 249 248 248 248 249 248 250 250 247 245 246 244 243 242 243 243 241 240 238 240 241 240 242 241 241 238 230 229 227 228 227 231 231 230 230
275 271 267 263 261 259 257 254 250 249 251 251 249 251 251 251 251 249 248 248 248 246 245 246 246 245 245 242 243 243 242 242 241 241 239 232 232 233 231 230 235 240 242
271 268 271 272 268 263 259 255 253 251 250 251 253 252 251 252 252 251 250 249 249 249 250 248 248 250 249 248 245 244 244 241 239 238 238 237 233 233 235 233 236 239 241
273 269 263 262 265 264 263 258 255 254 252 252 252 253 253 252 252 252 252 251 249 248 249 249 249 246 248 249 249 247 245 244 238 236 235 236 237 234 235 238 236 238 240
281 278 273 269 263 262 262 262 258 253 254 254 254 254 254 254 253 251 249 250 251 250 248 246 246 247 248 249 251 249 246 245 243 238 235 234 236 237 235 235 240 242 242
273 272 273 272 270 267 264 265 267 265 261 256 254 253 253 253 253 254 252 249 249 250 251 249 247 247 248 249 249 248 248 248 244 242 238 236 236 237 238 238 239 241 243
279 276 273 275 271 269 266 270 272 270 271 269 264 259 256 251 250 253 254 253 251 250 251 253 251 249 248 249 249 251 252 247 248 245 242 240 238 239 239 240 241 242 243
270 275 274 269 269 268 272 278 275 276 276 273 272 270 264 259 256 250 249 251 253 252 251 251 251 251 252 251 250 249 251 253 246 249 247 245 244 242 241 241 242 243 245
263 266 266 265 264 265 268 270 275 276 276 278 277 274 271 268 262 256 254 250 248 250 253 254 255 254 252 252 251 250 250 249 250 250 247 251 250 248 245 245 244 245 246
264 264 265 265 265 264 266 269 268 270 272 274 276 278 278 275 268 263 261 255 250 248 248 250 253 255 254 253 251 251 252 252 250 249 248 247 249 249 248 247 247 247 247
257 260 261 262 263 262 261 264 266 266 265 267 270 273 276 275 273 267 262 260 257 252 249 249 249 251 253 253 253 251 250 251 252 250 249 248 250 247 249 249 248 248 248
273 273 266 264 264 264 263 262 262 263 264 266 267 269 270 271 269 267 267 264 261 259 256 250 249 250 250 251 252 252 252 251 251 251 251 249 248 250 250 252 253 251 250
268 270 273 277 274 271 270 268 267 264 262 263 267 270 270 265 264 265 266 266 265 263 263 262 254 248 249 251 251 250 251 251 252 252 250 250 248 248 249 250 257 247 249
270 270 270 270 272 276 275 271 268 267 265 263 264 266 266 264 260 261 263 263 263 263 264 262 263 258 251 248 251 251 250 250 250 251 252 251 250 248 247 249 251 250 254
271 271 272 271 270 270 268 266 270 269 267 263 261 263 263 263 262 260 258 259 260 260 260 261 261 260 257 253 249 250 251 251 251 249 249 251 251 251 249 247 253 255 253
274 272 271 271 270 269 266 265 263 262 264 264 262 262 262 263 261 258 255 255 257 258 259 260 259 259 258 257 253 250 249 250 251 250 250 248 250 251 252 251 251 252 254
275 274 274 273 272 271 269 268 264 261 256 257 260 260 259 259 258 256 253 253 256 257 257 258 258 258 257 255 255 254 252 251 250 250 251 251 249 250 252 252 251 251 252
276 275 274 273 273 272 271 269 266 261 256 253 254 258 258 257 256 254 252 252 255 256 256 256 255 255 256 256 256 255 254 253 252 251 249 249 250 250 249 250 251 251 252